Location: Killam
(52.7910°N, 111.8608°W)
Time: 16:21:32
(UTC+00:00)

Vanguard 2 Rocket - Pass Details

Date: 20 February 2026
Orbit: 553 x 3286 km, 32.9° (Epoch: 11 March)

Event Time Altitude Azimuth Distance (km) Brightness Sun altitude
Rises 19:44:49 0° 231° (SW) 7,254 12.0 26.5°
Reaches altitude 10° 19:50:35 10° 224° (SW) 6,195 12.0 26.5°
Maximum altitude 20:06:03 32° 171° (S) 4,012 12.2 26.3°
Drops below altitude 10° 20:17:36 10° 115° (ESE) 4,624 10.8 26.0°
Sets 20:21:07 0° 106° (ESE) 5,262 10.9 25.9°
